Find Starlink 32426

NORAD ID: 61681 Int'l Des: 2024-193 Owner: SPXS Country: US Constellation: starlink operational
LEOCIRCULAR

現在のビュー

3D地球を読み込み中...

About Starlink 32426

Starlink 32426 (NORAD 61681) is a starlink constellation satellite (v2 mini) launched Oct 26, 2024 by SPXS of US. It operates in LEO, CIRCULAR orbit with a mass of 730.00 kg.

Starlink 32426について

説明を読み込み中...

次回通過

Passes for default location (London). Set your location on the main map for personalized predictions.

高度履歴

Loading altitude history...

軌道要素

1 61681U 24193W 26168.89110498 .00000608 00000-0 32672-4 0 9992
2 61681 53.1624 345.8807 0001292 83.2254 276.8894 15.30192723 91869
Epoch: Jun 17, 2026 • Age: 15 hours

現在のステータス

高度 480.9 km
速度 7.63 km/s
衛星直下点 53.03°N, 4.02°W
打ち上げ日 Oct 26, 2024
運用期間 1.6 years
タイプ internet

技術仕様

分類 Payload
質量 730.00 kg
乾燥質量 700.00 kg
総質量 730.00 kg
長さ 0.30 m
直径 4.10 m
スパン 29.00 m
形状 Box + pan
製造者 SPXS
バスタイプ Starlink V2M
フェーズステータス In Orbit
所有者/国 SPXS/US

Most Searched